Weather in Nanaimo

Canada     49°09′55″N   123°56′02″W
temp.,
°C
wind,
m/s
gust,
m/s
humid.,
%
clouds,
%
prec.,
mm/h
press.,
hPa
HPBL,
m
27 october, wed
wed2723:00+8sse338363 1.0 100760
02:00+7sse458581 0.0 101183
05:00+8sse4585100 0.0 1014117
08:00+8sse348799 0.0 101779
11:00+9sse4586100 0.0 1020177
14:00+11se2373100 0.0 1021408
17:00+11se117395 0.1 102113
20:00+9sse1180100 0.1 102215
28 october, thu
thu2823:00+9s2278100 0.2 102277
02:00+8se5893100 1.0 1020525
05:00+8ese81095100 6.2 1018969
08:00+7ese5893100 2.9 1016553
11:00+7ese4795100 7.9 1014519
14:00+7e1296100 10.1 1012211
17:00+8wnw6791100 16.1 1011542
20:00+7wnw7990100 2.0 1011514
29 october, fri
fri2923:00+7wnw71090100 3.1 1012636
02:00+7wnw71285100 0.1 1012704
05:00+7wnw813818 0.1 1012807
08:00+7wnw1014762 0.0 1014894
11:00+8wnw1115684 0.0 10161078
14:00+9wnw1114658 0.0 10171204
17:00+9wnw1013660 0.0 10191037
20:00+8wnw913690 0.0 1022801
30 october, sat
sat3023:00+7wnw710754 0.0 1025581
02:00+6wnw678015 0.0 1026447
05:00+5w56835 0.0 1027357
08:00+5w45845 0.0 1027317
11:00+7wnw34755 0.0 1028460
14:00+7nw43727 0.0 1027401
17:00+7wnw45740 0.0 1025171
20:00+6w447471 0.0 1024170
31 october, sun
sun3123:00+5w44730 0.0 1023203
02:00+5wnw34745 0.0 1022232
05:00+4w33770 0.0 1021207
08:00+4w22800 0.0 1020156
11:00+6nw01681 0.0 1020283
14:00+8e2357100 0.0 1018288
17:00+8ese336046 0.0 1017142
20:00+6sse2356100 0.0 1017101